Regional Weather Roundup
Issued by NWS

Home | Current Version | Previous Version | Graphics & Text | Print | Product List | Glossary On
Versions: 1 2 3 4 5 6 7 8 9 10 11 12 13 14 15 16 17 18 19 20 21 22 23 24 25 26 27 28 29 30 31 32 33 34 35 36 37 38 39 40 41 42 43 44 45 46 47 48 49 50
000
ASUS43 KTOP 211208
RWRKS

WEATHER ROUNDUP FOR KANSAS
NATIONAL WEATHER SERVICE GOODLAND KS
600 AM CST SUN DEC 21 2014

NOTE:  "FAIR" INDICATES FEW OR NO CLOUDS BELOW 12,000 FEET WITH NO
SIGNIFICANT WEATHER AND/OR OBSTRUCTIONS TO VISIBILITY.

KSZ001>006-013>018-027>032-041>047-211300-
NORTHWEST KANSAS

CITY           SKY/WX    TMP DP  RH WIND       PRES   REMARKS
GOODLAND       PTCLDY    30  26  85 S6        29.80F
6HR MIN TEMP:  29; 6HR MAX TEMP:  37;

HAYS           CLOUDY    34  27  75 S13       29.90F VSB 1/2 WCI  25
HILL CITY      MOCLDY    32  29  88 S8        29.86F FOG
6HR MIN TEMP:  28; 6HR MAX TEMP:  36;

RUSSELL        CLOUDY    36  36 100 SW20      29.91F FOG     WCI  25
6HR MIN TEMP:  33; 6HR MAX TEMP:  36;

$$

KSZ061>065-074>080-084>089-211300-
SOUTHWEST KANSAS

CITY           SKY/WX    TMP DP  RH WIND       PRES   REMARKS
DODGE CITY     CLOUDY    38  37  97 S10       29.89F FOG     WCI  31
6HR MIN TEMP:  31; 6HR MAX TEMP:  38;

ELKHART          N/A    N/A N/A N/A MISG        N/A
GARDEN CITY      N/A     33  33 100 S9        29.85F VSB 1/4
6HR MIN TEMP:  27; 6HR MAX TEMP:  33; 6HR PCP: TRACE;

GREAT BEND     CLOUDY    39  36  87 S8        29.94F
LIBERAL        CLOUDY    37  34  87 S7        29.87F
PRATT          CLOUDY    37  37 100 S9        29.95F FOG
$$

KSZ066>073-081>083-090>101-211300-
SOUTHEAST KANSAS

CITY           SKY/WX    TMP DP  RH WIND       PRES   REMARKS
CHANUTE        CLOUDY    40  38  93 SW10      30.05F WCI  33
6HR MIN TEMP:  37; 6HR MAX TEMP:  40;

COFFEYVILLE    CLOUDY    41  38  89 S8        30.07F
6HR MIN TEMP:  41; 6HR MAX TEMP:  42;

HUTCHINSON     CLOUDY    40  37  89 S9        29.98F FOG
6HR MIN TEMP:  37; 6HR MAX TEMP:  41;

MEDICINE LODGE   N/A     38  38 100 S8        29.97F
NEWTON         CLOUDY    39  34  81 S10       30.00F WCI  32
PARSONS        CLOUDY    42  38  85 CALM      30.07F
6HR MIN TEMP:  41; 6HR MAX TEMP:  42;

WICHITA INTL   CLOUDY    41  36  82 S14       30.00S
6HR MIN TEMP:  41; 6HR MAX TEMP:  43;

WICHITA JABRA  CLOUDY    40  36  86 S12       29.99S WCI  33
6HR MIN TEMP:  40; 6HR MAX TEMP:  41;

WICHITA MCCONL CLOUDY    40  37  88 S10       30.00S WCI  34
WINFIELD       CLOUDY    40  38  93 S10       30.03F WCI  33
6HR MIN TEMP:  40; 6HR MAX TEMP:  42;

$$

KSZ007>012-019>026-033>040-048>060-102>105-211300-
NORTHEAST KANSAS

CITY           SKY/WX    TMP DP  RH WIND       PRES   REMARKS
CONCORDIA      FOG       35  35 100 S17       29.92F VSB 1   WCI  25
6HR MIN TEMP:  35; 6HR MAX TEMP:  37;

EMPORIA        CLOUDY    38  38 100 S8        30.02S FOG
6HR MIN TEMP:  34; 6HR MAX TEMP:  38;

LAWRENCE       CLOUDY    38  35  89 S7        30.05F
6HR MIN TEMP:  33; 6HR MAX TEMP:  38;

MANHATTAN      CLOUDY    40  37  89 S7        29.97F
6HR MIN TEMP:  37; 6HR MAX TEMP:  42;

MARYSVILLE     MOCLDY    37  36  93 S9        29.94F
OLATHE IND     CLOUDY    37  36  96 S8        30.06F FOG
6HR MIN TEMP:  32; 6HR MAX TEMP:  37;

OLATHE EXE     CLOUDY    36  36 100 S8        30.05F FOG
6HR MIN TEMP:  34; 6HR MAX TEMP:  36;

SALINA         CLOUDY    41  38  89 S16       29.97F
6HR MIN TEMP:  35; 6HR MAX TEMP:  42;

TOPEKA BILLARD CLOUDY   N/A N/A N/A S9        30.03F
TOPEKA FORBES  CLOUDY    40  35  83 S9        30.02F
6HR MIN TEMP:  36; 6HR MAX TEMP:  40;

$$


USA.gov is the U.S. government's official web portal to all federal, state and local government web resources and services.